Weather History for PAEI - December, 2012

Change the Weather History Date:

Thursday, December 13, 2012

  Actual Average Record
Temperature  
Mean Temperature 11 °F -  
Max Temperature 26 °F 2 °F 44 °F (1967)
Min Temperature -6 °F -14 °F -53 °F (1964)
Degree Days  
Heating Degree Days 54    
Moisture  
Dew Point 10 °F    
Average Humidity 84    
Maximum Humidity 93    
Minimum Humidity 73    
Precipitation  
Precipitation 0.02 in - - ()
Snow  
Snow 0.00 in - - ()
Snow Depth 16.00 in    
Sea Level Pressure  
Sea Level Pressure 29.31 in    
Wind  
Wind Speed 8 mph (SW)    
Max Wind Speed 14 mph    
Max Gust Speed 23 mph    
Visibility 6 miles    
Events Snow    
Averages and records for this station are not official NWS values.
T = Trace of Precipitation, MM = Missing Value Source: NWS Daily Summary

Daily Weather History Graph

Daily Weather History Graph

Search for Another Location

Airport or City:

Trip Planner

Search our weather history database for the weather conditions in past years. The results will help you decide how hot, cold, wet, or windy it might be!

Date:

Astronomy

Dec. 13, 2012 Rise Set
Actual Time 10:44 AM AKST 2:41 PM AKST
Civil Twilight 9:22 AM AKST 4:03 PM AKST
Nautical Twilight 8:11 AM AKST 5:14 PM AKST
Astronomical Twilight 7:10 AM AKST 6:15 PM AKST
Moon 10:44 AM AKST (12/13) 3:54 PM AKST (12/13)
Length of Visible Light 6h 41m
Length of Day
3h 57m
New Moon, 0% of the Moon is Illuminated
Dec 13
New Moon
Dec 19
First Quarter
Dec 28
Full
Jan 4
Last Quarter
Jan 11
New

Hourly Weather History & Observations

Time (AKST) Temp. Windchill Dew Point Humidity Pressure Visibility Wind Dir Wind Speed Gust Speed Precip Events Conditions
12:39 AM 23.0 °F 13.1 °F 21.2 °F 93% 29.06 in 10.0 mi SSW 9.2 mph - N/A   Overcast
12:55 AM 23.5 °F 11.8 °F 20.8 °F 89% 29.10 in 8.0 mi South 12.7 mph - 0.01 in   Overcast
1:41 AM 24.8 °F 14.0 °F 21.2 °F 86% 29.11 in 4.0 mi South 11.5 mph - N/A Snow Light Snow
1:47 AM 24.8 °F 14.0 °F 21.2 °F 86% 29.11 in 2.0 mi South 11.5 mph - N/A Snow Light Snow
1:58 AM 24.8 °F 14.0 °F 23.0 °F 93% 29.15 in 1.5 mi South 11.5 mph - N/A Snow Light Snow
2:14 AM 26.6 °F 15.7 °F 23.0 °F 86% 29.11 in 0.8 mi South 12.7 mph - N/A Snow Light Snow
2:55 AM 26.4 °F 15.5 °F 24.3 °F 92% 29.12 in 1.0 mi South 12.7 mph - 0.01 in Snow Light Snow
3:55 AM 24.8 °F 14.0 °F 23.0 °F 93% 29.17 in 1.0 mi South 11.5 mph - N/A Snow Light Snow
4:55 AM 24.8 °F 15.3 °F 22.3 °F 90% 29.13 in 10.0 mi South 9.2 mph - 0.00 in   Overcast
5:55 AM 25.0 °F 15.5 °F 22.3 °F 89% 29.14 in 6.0 mi South 9.2 mph - 0.00 in Snow Light Snow
6:11 AM 24.8 °F 14.6 °F 21.2 °F 86% 29.14 in 7.0 mi South 10.4 mph - N/A Snow Light Snow
6:55 AM 23.9 °F 14.2 °F 21.2 °F 89% 29.15 in 5.0 mi South 9.2 mph - 0.00 in Snow Light Snow
7:55 AM 23.4 °F - 20.8 °F 90% 29.15 in 8.0 mi Calm Calm - 0.00 in Snow Light Snow
8:35 AM 21.2 °F 13.6 °F 19.4 °F 93% 29.18 in 3.0 mi SW 5.8 mph - N/A Snow Light Snow
8:42 AM 21.2 °F 12.6 °F 19.4 °F 93% 29.18 in 1.0 mi SW 6.9 mph - N/A Snow Light Snow
8:54 AM 21.2 °F 11.7 °F 19.4 °F 93% 29.19 in 2.0 mi SW 8.1 mph - N/A Snow Light Snow
9:05 AM 23.0 °F 13.9 °F 19.4 °F 86% 29.20 in 8.0 mi SSW 8.1 mph - N/A   Overcast
9:17 AM 23.0 °F 14.7 °F 19.4 °F 86% 29.21 in - SW 6.9 mph - N/A Snow Light Snow
9:55 AM 24.3 °F 12.7 °F 21.7 °F 90% 29.24 in 2.0 mi West 12.7 mph 20.7 mph 0.00 in Snow Light Snow
10:22 AM 21.2 °F 9.5 °F 17.6 °F 86% 29.28 in 1.5 mi WNW 11.5 mph 23.0 mph N/A Snow Light Snow
10:35 AM 21.2 °F 10.1 °F 15.8 °F 80% 29.29 in 2.0 mi WNW 10.4 mph 23.0 mph N/A Snow Light Snow
10:55 AM 19.0 °F 5.6 °F 14.7 °F 83% 29.32 in 2.0 mi WNW 13.8 mph - 0.00 in Snow Light Snow
11:55 AM 16.0 °F 2.9 °F 10.6 °F 79% 29.36 in 4.0 mi NW 11.5 mph - 0.00 in Snow Light Snow
12:10 PM 15.8 °F 6.1 °F 10.4 °F 79% 29.37 in 10.0 mi NW 6.9 mph - N/A   Overcast
12:17 PM 14.0 °F 2.0 °F 8.6 °F 79% 29.37 in 10.0 mi NW 9.2 mph - N/A   Overcast
12:21 PM 14.0 °F 3.9 °F 8.6 °F 79% 29.37 in 10.0 mi NW 6.9 mph - N/A   Overcast
12:55 PM 13.6 °F 2.5 °F 8.8 °F 81% 29.38 in 4.0 mi NNW 8.1 mph - 0.00 in Snow Light Snow
1:18 PM 14.0 °F 2.0 °F 8.6 °F 79% 29.35 in 2.0 mi NW 9.2 mph - N/A Snow Light Snow
1:38 PM 14.0 °F 6.5 °F 8.6 °F 79% 29.40 in 3.0 mi NW 4.6 mph - N/A Snow Light Snow
2:55 PM 12.2 °F 2.9 °F 5.0 °F 73% 29.39 in 3.0 mi NW 5.8 mph - N/A Snow Light Snow
3:55 PM 9.3 °F 2.8 °F 5.0 °F 83% 29.44 in 10.0 mi WNW 3.5 mph - 0.00 in   Mostly Cloudy
4:55 PM 7.9 °F - 2.7 °F 79% 29.47 in 10.0 mi Calm Calm - N/A   Mostly Cloudy
5:55 PM 5.7 °F - -0.0 °F 77% 29.48 in 10.0 mi Calm Calm - N/A   Mostly Cloudy
6:55 PM 4.3 °F -4.9 °F -1.1 °F 78% 29.49 in 10.0 mi SSW 4.6 mph - N/A   Overcast
7:55 PM 2.7 °F -9.7 °F -2.4 °F 79% 29.48 in 10.0 mi SSW 6.9 mph - N/A   Scattered Clouds
8:07 PM 3.2 °F -10.3 °F -0.4 °F 85% 29.48 in 10.0 mi SSW 8.1 mph - N/A   Mostly Cloudy
8:29 PM 3.2 °F -6.2 °F -0.4 °F 85% 29.48 in 10.0 mi SW 4.6 mph - N/A   Scattered Clouds
8:55 PM -1.3 °F - -5.4 °F 83% 29.48 in 10.0 mi Calm Calm - N/A   Mostly Cloudy
9:26 PM -2.2 °F - -7.6 °F 78% 29.48 in 7.0 mi Calm Calm - N/A   Overcast
9:33 PM -2.2 °F - -5.8 °F 85% 29.48 in 6.0 mi Calm Calm - N/A   Haze
9:41 PM -0.4 °F - -5.8 °F 78% 29.48 in 10.0 mi Calm Calm - N/A   Overcast
9:55 PM -2.2 °F - -5.8 °F 85% 29.51 in 9.0 mi Calm Calm - N/A   Mostly Cloudy
10:55 PM -3.8 °F - -8.0 °F 82% 29.48 in 9.0 mi Calm Calm - 0.00 in Snow Light Snow
10:57 PM -4.0 °F - -7.6 °F 85% 29.49 in 10.0 mi Calm Calm - N/A Snow Light Snow
11:55 PM -6.2 °F - -10.8 °F 80% 29.44 in 9.0 mi Calm Calm - N/A   Overcast